{"data":{"norad_id":58931,"intl_designator":"2024-027A","name":"STARLINK-31317","alt_names":[],"object_type":"PAYLOAD","status":"ACTIVE","operator":null,"country":"US","launch_date":"2024-02-10","launch_site_code":"AFWTR","launch_vehicle":null,"mission":null,"orbit_class":"UNKNOWN","rcs_meters":null,"size_class":null,"mass_kg":null,"dimensions":null,"purposes":["comms"],"wikipedia_slug":null,"has_3d_model":false,"image_url":null,"decayed_at":null,"tle_current":{"epoch":"2026-09-20T00:01:39.163872Z","epoch_age_seconds":198865,"freshness":"STALE","line1":"1 58931U 24027A   26263.00114773  .00002221  00000+0  76850-4 0  9999","line2":"2 58931  53.1579 123.8549 0000970  65.2550 294.8553 15.34397689146966","mean_motion":15.34397689,"eccentricity":9.7e-5,"inclination_deg":53.1579,"raan_deg":123.8549,"arg_perigee_deg":65.255,"mean_anomaly_deg":294.8553,"bstar":7.685e-5,"rev_number":14696,"period_min":93.847899428112,"perigee_km":462.04654682518,"apogee_km":463.37367116432,"semimajor_km":6840.8471089947,"source":"CELESTRAK","updated_at":"2026-09-21T09:00:33.995779Z"}}}